Location: Korczew
(51.3586°N, 19.4491°E)
Time: 06:55:23
(UTC+00:00)

CZ-4C R/B - Pass Details

Date: 19 May 2025
Orbit: 501 x 1482 km, 63.4° (Epoch: 16 June)

Event Time Altitude Azimuth Distance (km) Brightness Sun altitude
Rises 19:28:56 0° 313° (NW) 3,736 8.2 -7.5°
Reaches altitude 10° 19:31:25 10° 308° (NW) 2,918 6.7 -7.8°
Maximum altitude 19:38:09 46° 238° (WSW) 1,635 3.8 -8.5°
Drops below altitude 10° 19:46:13 10° 169° (S) 3,496 4.9 -9.3°
Enters shadow 19:47:24 - 167° (SSE) 3,871 5.1 -9.4°
